Flag for Thailand Weather past 2 weeks in Khon Kaen, Thailand

Now
91 °F

Clear.


Feels Like: 88 °F
Forecast: 66 / 92 °F
Wind: 5 mph from North

Location: Khon Kaen Airport

Current Time: Jan 26, 2015 at 2:33:09 PM

Latest Report: Jan 26, 2015 at 2:00 PM


Visibility: 5 mi

Pressure: 29.89 "Hg

Humidity: 24%

Dew point: 50 °F

Location of Khon KaenLocation

Historic Weather in Khon Kaen — Graph

°F

Khon Kaen temperature yesterday

Maximum temperature yesterday: 91 °F (at 3:00 PM)
Minimum temperature yesterday: 63 °F (at 7:00 AM)
Average temperature yesterday: 78 °F

Past Weeks' High & Low Weather Summary

 TemperatureHumidityPressure
High91 °F (Jan 25, 3:00 PM)83% (Jan 12, 1:00 AM)30.15 "Hg (Jan 12, 1:00 AM)
Low50 °F (Jan 14, 7:00 AM)20% (Jan 14, 3:00 PM)29.86 "Hg (Jan 23, 3:00 PM)
Average71 °F52%30.03 "Hg
* Reported Jan 11 1:00 PM — Jan 26 1:00 PM, Khon Kaen, Weather by CustomWeather, © 2014

Note: Actual official high and low records may vary slightly from our data, if they occured in-between our weather recording intervals... More about our weather records

Advertising

Khon Kaen weather history for previous 24 hours

 ConditionsComfort  
Time TempWeatherWind HumidityBarometerVisibility
1:00 PM
Jan 26
91 °FClear.5 mph24%29.95 "Hg5 mi
12:00 PM88 °FClear.6 mph29%29.98 "Hg5 mi
11:00 AM84 °FHaze.5 mph35%30.01 "Hg3 mi
10:00 AM82 °FHaze.6 mph37%30.01 "Hg3 mi
9:00 AM73 °FHaze.3 mph57%30.01 "Hg2 mi
8:00 AM68 °FFog.6 mph69%30.01 "Hg2 mi
7:00 AM64 °FFog.5 mph73%29.98 "Hg2 mi
6:00 AM63 °FClear.3 mph77%29.98 "Hg3 mi
5:00 AM66 °FClear.1 mph68%29.95 "Hg4 mi
3:00 AM68 °FClear.5 mph64%29.95 "Hg5 mi
2:00 AM68 °FClear.2 mph64%29.95 "Hg5 mi
9:00 PM
Jan 25
75 °FClear.2 mph50%29.95 "Hg5 mi
8:00 PM77 °FClear.2 mph54%29.95 "Hg5 mi
7:00 PM81 °FClear.1 mph42%29.92 "Hg5 mi
6:00 PM86 °FClear.2 mph31%29.89 "Hg4 mi
5:00 PM90 °FClear.2 mph27%29.89 "Hg6 mi
4:00 PM91 °FClear.3 mph26%29.89 "Hg6 mi
3:00 PM91 °FClear.5 mph26%29.89 "Hg5 mi
2:00 PM90 °FClear.6 mph27%29.92 "Hg5 mi
Weather by CustomWeather, © 2014

See weather overviewHow to use our weather pages